This is the latest recevied weather packets stored in our database for station/object W0WC. If no packets are shown the sender has not sent any weather packets the latest 10 day(s).
| Time | Temp. | Humidity | Pressure | Rain* | Wind** | Luminosity | Snow |
|---|---|---|---|---|---|---|---|
| 1788190305 | 33.33° C | 44% | 1018.6 hPa | 0 mm | - | 484 W/m² | - |
| 1788190000 | 32.78° C | 45% | 1018.4 hPa | 0 mm | - | 472 W/m² | - |
| 1788189697 | 32.22° C | 46% | 1018.7 hPa | 0 mm | - | 461 W/m² | - |
| 1788189396 | 32.22° C | 46% | 1018.5 hPa | 0 mm | - | 443 W/m² | - |
| 1788189091 | 32.22° C | 47% | 1018.4 hPa | 0 mm | - | 434 W/m² | - |
| 1788188786 | 31.67° C | 47% | 1018.5 hPa | 0 mm | - | 420 W/m² | - |
| 1788188482 | 31.67° C | 47% | 1018.4 hPa | 0 mm | - | 404 W/m² | - |
| 1788188181 | 31.67° C | 47% | 1018.4 hPa | 0 mm | - | 391 W/m² | - |
| 1788187878 | 31.67° C | 48% | 1018.4 hPa | 0 mm | - | 379 W/m² | - |
| 1788187574 | 31.67° C | 48% | 1018.6 hPa | 0 mm | - | 362 W/m² | - |
| 1788187269 | 31.67° C | 48% | 1018.3 hPa | 0 mm | - | 351 W/m² | - |
| 1788186969 | 31.11° C | 48% | 1018.5 hPa | 0 mm | - | 148 W/m² | - |
| 1788186664 | 31.11° C | 49% | 1018.6 hPa | 0 mm | - | 320 W/m² | - |
| 1788186361 | 30.56° C | 50% | 1018.4 hPa | 0 mm | - | 230 W/m² | - |
| 1788186056 | 30.56° C | 51% | 1018.4 hPa | 0 mm | - | 292 W/m² | - |
| 1788185754 | 30° C | 51% | 1018.3 hPa | 0 mm | - | 277 W/m² | - |
| 1788185464 | 30° C | 52% | 1018.5 hPa | 0 mm | - | 263 W/m² | - |
| 1788185149 | 29.44° C | 52% | 1018.4 hPa | 0 mm | - | 250 W/m² | - |
| 1788184849 | 29.44° C | 53% | 1018.3 hPa | 0 mm | - | 73 W/m² | - |
| 1788184547 | 29.44° C | 53% | 1018.2 hPa | 0 mm | - | 116 W/m² | - |
| 1788184243 | 28.89° C | 54% | 1018.3 hPa | 0 mm | - | 184 W/m² | - |
| 1788183939 | 28.89° C | 54% | 1018.2 hPa | 0 mm | - | 189 W/m² | - |
| 1788183639 | 28.89° C | 54% | 1018.2 hPa | 0 mm | - | 176 W/m² | - |
| 1788183338 | 28.89° C | 54% | 1018.2 hPa | 0 mm | - | 86 W/m² | - |
| 1788183034 | 28.33° C | 55% | 1018.2 hPa | 0 mm | - | 150 W/m² | - |
* Rain latest hour (hover to see other rain measurements)
** Current wind speed in m/s (hover to see current wind gust speed)